{"data":{"norad_id":55156,"epoch":"2026-05-25T02:43:31.050048Z","epoch_age_seconds":55395,"freshness":"FRESH","line1":"1 55156U 23004S   26145.11355382  .00000508  00000+0  13961-2 0  9991","line2":"2 55156  87.8907  25.6686 0001997  85.4181 274.7175 13.11417114162814","mean_motion":13.11417114,"eccentricity":0.0001997,"inclination_deg":87.8907,"raan_deg":25.6686,"arg_perigee_deg":85.4181,"mean_anomaly_deg":274.7175,"bstar":0.0013961,"rev_number":16281,"period_min":109.80488089009,"perigee_km":1216.1651607371,"apogee_km":1219.1989308639,"semimajor_km":7595.8190458005,"source":"CELESTRAK","updated_at":"2026-05-25T13:38:22.642737Z"}}